Zurück zum Katalog

ICEYE-X42

AktivWissenschaftSSO
NORAD 62698·PAYLOAD·🇦🇪 UAE

Gestartet Jan 14, 2025 von Vandenberg Space Force Base

Loading…

Nächste Überflüge (nächste 24 Stunden)

TLE

AktuellSource: Space-Track

Epoche: Sep 14, 2026, 11:34 UTC

1 62698U 25009CT  26257.48215717  .00001479  00000-0  15210-3 0  9997
2 62698  97.7384 334.1730 0001298 102.6919 257.4445 14.91819002 90601

Verfolge ICEYE-X42 in Echtzeit mit AllMySat

Download on the App Store